This demonstration page uses our WeatherBlox Daily Observations layout. Learn more.

Left ArrowRight Arrow

Hourly Observations for September 5, 2020

Temp ( °F °C ) Dew Point ( °F °C ) Humidity (%) Winds ( mph kmh ) Pressure ( in mb ) Visibility ( mi km ) Precip ( " mm )
12:51 am 00:51 Clear 88 31.1 38 3.3 17 17 E 13 20 29.93 1013 10 16.0934 0 0
1:51 am 01:51 Clear 87 30.6 40 4.4 19 19 E 16 26 29.93 1014 10 16.0934 0 0
2:51 am 02:51 Clear 87 30.6 42 5.6 21 21 E 15 24 29.95 1014 10 16.0934 0 0
3:51 am 03:51 Clear 82 27.8 43 6.1 25 25 E 9 15 29.96 1014 10 16.0934 0 0
4:51 am 04:51 Clear 81 27.2 43 6.1 26 26 E 7 11 29.97 1015 10 16.0934 0 0
5:51 am 05:51 Clear 81 27.2 43 6.1 26 26 E 14 22 30 1016 10 16.0934 0 0
6:51 am 06:51 Sunny 82 27.8 42 5.6 24 24 E 9 15 30.02 1017 10 16.0934 0 0
7:51 am 07:51 Sunny 85 29.4 45 7.2 25 25 SE 10 17 30.04 1017 10 16.0934 0 0
8:51 am 08:51 Sunny 91 32.8 49 9.4 24 24 SE 13 20 30.05 1018 10 16.0934 0 0
9:51 am 09:51 Sunny 93 33.9 50 10 23 23 SE 12 19 30.05 1018 10 16.0934 0 0
10:51 am 10:51 Sunny 96 35.6 49 9.4 20 20 SE 9 15 30.04 1017 10 16.0934 0 0
11:51 am 11:51 Sunny 98 36.7 46 7.8 17 17 SSE 8 13 30.01 1016 10 16.0934 0 0
12:51 pm 12:51 Sunny 100 37.8 47 8.3 16 16 S 15 24 29.97 1015 10 16.0934 0 0
1:51 pm 13:51 Sunny 102 38.9 47 8.3 15 15 ESE 9 15 29.93 1014 10 16.0934 0 0
2:51 pm 14:51 Sunny 102 38.9 47 8.3 15 15 S 14 22 29.9 1013 10 16.0934 0 0
3:51 pm 15:51 Sunny 103 39.4 44 6.7 13 13 undefined N/A 29.88 1012 10 16.0934 0 0
4:51 pm 16:51 Sunny 101 38.3 42 5.6 13 13 WSW 9 15 29.9 1013 10 16.0934 0 0
5:51 pm 17:51 Sunny 96 35.6 45 7.2 17 17 N 20 31 29.91 1013 10 16.0934 0 0
6:51 pm 18:51 Clear 94 34.4 45 7.2 18 18 Calm 29.92 1013 10 16.0934 0 0
7:51 pm 19:51 Clear 88 31.1 47 8.3 24 24 NW 6 9 29.95 1014 10 16.0934 0 0
8:51 pm 20:51 Clear 85 29.4 47 8.3 27 27 N 5 7 29.96 1015 10 16.0934 0 0
9:51 pm 21:51 Clear 87 30.6 47 8.3 25 25 E 3 6 29.96 1014 10 16.0934 0 0
10:51 pm 22:51 Clear 83 28.3 47 8.3 28 28 E 9 15 29.95 1014 10 16.0934 0 0
11:51 pm 23:51 Clear 83 28.3 46 7.8 27 27 SE 9 15 29.96 1015 10 16.0934 0 0

Powered by AerisWeather